TimePDT,TemperatureF,Dew PointF,Humidity,Sea Level PressureIn,VisibilityMPH,Wind Direction,Wind SpeedMPH,Gust SpeedMPH,PrecipitationIn,Events,Conditions,WindDirDegrees,DateUTC
12:53 AM,55.9,30.0,37,30.00,10.0,NW,4.6,-,N/A,,Clear,310,2013-10-07 07:53:00
1:53 AM,57.0,30.0,36,29.99,10.0,NW,5.8,-,N/A,,Clear,320,2013-10-07 08:53:00
2:53 AM,54.0,32.0,43,29.99,10.0,Calm,Calm,-,N/A,,Clear,0,2013-10-07 09:53:00
3:53 AM,52.0,30.0,43,29.97,10.0,West,3.5,-,N/A,,Clear,260,2013-10-07 10:53:00
4:53 AM,48.9,32.0,52,29.97,10.0,Calm,Calm,-,N/A,,Clear,0,2013-10-07 11:53:00
5:53 AM,51.1,30.9,46,29.97,10.0,NW,3.5,-,N/A,,Clear,310,2013-10-07 12:53:00
6:53 AM,46.9,30.9,54,29.99,10.0,WSW,3.5,-,N/A,,Clear,240,2013-10-07 13:53:00
7:53 AM,50.0,30.9,48,30.00,10.0,West,3.5,-,N/A,,Clear,280,2013-10-07 14:53:00
8:53 AM,59.0,34.0,39,30.01,10.0,Calm,Calm,-,N/A,,Clear,0,2013-10-07 15:53:00
9:53 AM,64.9,28.0,25,29.99,10.0,Calm,Calm,-,N/A,,Clear,0,2013-10-07 16:53:00
10:53 AM,70.0,32.0,25,29.99,10.0,Variable,3.5,-,N/A,,Clear,0,2013-10-07 17:53:00
11:53 AM,73.0,37.0,27,29.98,10.0,SSE,6.9,-,N/A,,Clear,160,2013-10-07 18:53:00
12:53 PM,78.1,30.0,17,29.95,10.0,SSE,5.8,-,N/A,,Clear,160,2013-10-07 19:53:00
1:53 PM,75.9,28.0,17,29.93,10.0,WSW,9.2,-,N/A,,Clear,240,2013-10-07 20:53:00
2:53 PM,70.0,39.0,32,29.94,10.0,SSW,9.2,-,N/A,,Clear,210,2013-10-07 21:53:00
3:53 PM,69.1,46.0,44,29.93,10.0,South,9.2,-,N/A,,Clear,180,2013-10-07 22:53:00
4:53 PM,63.0,50.0,63,29.92,10.0,SSE,8.1,-,N/A,,Clear,160,2013-10-07 23:53:00
5:53 PM,60.1,51.1,72,29.91,10.0,SSE,6.9,-,N/A,,Clear,150,2013-10-08 00:53:00
6:53 PM,55.9,51.1,84,29.92,10.0,SE,4.6,-,N/A,,Clear,130,2013-10-08 01:53:00
7:53 PM,55.0,51.1,86,29.92,10.0,ESE,4.6,-,N/A,,Clear,110,2013-10-08 02:53:00
8:53 PM,55.0,50.0,83,29.93,10.0,Calm,Calm,-,N/A,,Clear,0,2013-10-08 03:53:00
9:53 PM,54.0,50.0,86,29.94,10.0,North,3.5,-,N/A,,Clear,10,2013-10-08 04:53:00
10:53 PM,52.0,48.0,86,29.95,10.0,NNW,4.6,-,N/A,,Clear,330,2013-10-08 05:53:00
11:53 PM,51.1,46.0,83,29.94,10.0,NNW,3.5,-,N/A,,Clear,330,2013-10-08 06:53:00